Location: ???????
(55.7027°N, 37.3832°E)
Time: 06:52:43
(UTC+00:00)

Helios 1B rocket - Pass Details

Date: 14 April 2026
Orbit: 462 x 468 km, 98.2° (Epoch: 12 May)

Event Time Altitude Azimuth Distance (km) Brightness Sun altitude
Exits shadow 18:23:40 12° 79° (ENE) 1,496 4.2 -14.0°
Maximum altitude 18:24:57 14° 55° (NE) 1,386 4.2 -14.2°
Drops below altitude 10° 18:26:55 10° 21° (NNE) 1,646 5.0 -14.4°
Sets 18:29:41 0° 356° (N) 2,530 6.5 -14.7°
